INMARSAT 3-F3

Last updated on Wed Sep 17 2025 00:02:45 GMT+0000 (Coordinated Universal Time)

1 24674U 96070A 25259.29101326 -.00000285 00000+0 00000+0 0 9996 2 24674 9.7222 52.2094 0006946 147.4062 224.5317 1.00002872105176
UTC large
Height (km)
Speed (km/s)
/
Latitude / Longitude
Inclination (degrees)
Orbital Period (minutes)
Azimuth
Elevation
Range (km)
Doppler Factor

Next 0 passes for location: London (51.5072 / 0.1276)

Sorry there are no passes over London.